OpenBCM V2.0.2 (Linux)

Packet Radio Mailbox

IZ3LSV

[San Dona' di P. JN]

 Login: GUEST





  
LU9DCE > KEP      01.01.20 18:08l 245 Lines 12106 Bytes #999 (0) @ WW
BID : 6319_LU9DCE
Read: GUEST
Subj: TLE 01 01
Path: IZ3LSV<IR1UAW<IW2OHX<IR2UBX<DB0RES<ON0AR<GB7CIP<N7HPX<LU9DCE
Sent: 200101/1600Z 6319@LU9DCE.TOR.BA.ARG.SOAM LinBPQ6.0.19

            __    _  _  ___  ____   ___  ____    ____  ____  ____
           (  )  / )( \/ _ \(    \ / __)(  __)  (  _ \(  _ \/ ___)
           / (_/\) \/ (\__  )) D (( (__  ) _)    ) _ ( ) _ (\___ \
           \____/\____/(___/(____/ \___)(____)  (____/(____/(____/
               ESTACION DE PACKET RADIO - BUENOS AIRES (GF05OM)
                   BOLETINES INFORMATIVOS PROGRAMADOS (BIP)
                      LINUX - HELLOCODELINUX@GMAIL.COM
+----------------------------------------------------------------------------+
OSCAR 7
1  7530U 74089B   19365.85654740 -.00000026  00000-0  12187-3 0  9997
2  7530 101.7756 331.7122 0012180 330.1905  83.0124 12.53641421 65105
OSCAR 11 (UoSAT 2)
1 14781U 84021B   20001.50266577  .00000064  00000-0  13969-4 0  9999
2 14781  97.5983  21.7626 0009381  41.2558 318.9363 14.83131723927930
OSCAR 19 (LUSAT)
1 20442U 90005G   19365.81252800 +.00000007 +00000-0 +19083-4 0  9998
2 20442 098.6725 307.6843 0010767 294.2739 065.7320 14.32941586564404
EYESAT A
1 22825U 93061C   19365.89544943 -.00000005 +00000-0 +16175-4 0  9998
2 22825 098.9177 359.1548 0008993 142.2073 217.9742 14.30074684369721
ITAMSAT
1 22826U 93061D   19365.85135813 -.00000009 +00000-0 +14340-4 0  9993
2 22826 098.9116 359.0767 0009679 132.0263 228.1744 14.30409252369940
RADIO ROSTO
1 23439U 94085A   19365.87662155 -.00000049 +00000-0 -18352-3 0  9998
2 23439 064.8136 158.8659 0146028 074.7929 286.9089 11.27569336030011
JAS 2
1 24278U 96046B   20001.39014079 -.00000004  00000-0  28834-4 0  9998
2 24278  98.5644 133.4053 0351319  90.1768 273.9625 13.53095029154408
TECHSAT 1B
1 25397U 98043D   19365.77289643 -.00000005  00000-0  16978-4 0  9991
2 25397  98.7111 303.7203 0001506 143.6889 216.4392 14.23676878115774
ISS (ZARYA)
1 25544U 98067A   20001.58711318  .00001214  00000-0  29727-4 0  9996
2 25544  51.6440  97.7889 0005337  92.2059  40.6973 15.49530004206036
PCSAT
1 26931U 01043C   19365.88869834 -.00000044 +00000-0 +14759-4 0  9996
2 26931 067.0497 217.3908 0006869 263.4833 096.5486 14.30563204952961
SAUDISAT 1C
1 27607U 02058C   19365.81960322 -.00000030  00000-0  16513-4 0  9996
2 27607  64.5535 169.9532 0068018 217.6145 142.0191 14.75598692915971
CUTE-1
1 27844U 03031E   20001.50211911  .00000027  00000-0  32026-4 0  9991
2 27844  98.6835  11.7642 0009904 175.8041 184.3221 14.22213674856265
CUBESAT XI 4
1 27848U 03031J   20001.48017430  .00000013  00000-0  25691-4 0  9997
2 27848  98.6908  12.2797 0009567 187.6553 172.4480 14.21803911856107
MOZHAYETS 4
1 27939U 03042A   20001.51087111  .00000074  00000-0  21864-4 0  9992
2 27939  98.0662 138.8303 0013453 159.6816 200.4926 14.66827844869399
CUBESAT XI 5
1 28895U 05043F   19365.84178652 +.00000101 +00000-0 +28186-4 0  9990
2 28895 097.9845 142.1906 0018111 093.0148 267.3128 14.63725403755940
CUTE-1.7+APD II
1 32785U 08021C   20001.13186707  .00000179  00000-0  24881-4 0  9996
2 32785  97.5604 356.6950 0012453 337.8404  22.2274 14.88396885632905
DELFI C3
1 32789U 08021G   20001.14058184  .00001358  00000-0  93706-4 0  9990
2 32789  97.4412  49.6523 0012627 166.5351 193.6217 15.07358660636557
SEEDS
1 32791U 08021J   20001.08621697  .00000347  00000-0  40532-4 0  9997
2 32791  97.5330   2.7708 0012128 307.8821  52.1300 14.90943070633378
YUBELEINY
1 32953U 08025A   20001.50808284  .00000037  00000-0  19437-3 0  9992
2 32953  82.5045  22.3607 0020237  62.3564 297.9570 12.43093384526760
PRISM (HITOMI)
1 33493U 09002B   19365.87498844 +.00000493 +00000-0 +48579-4 0  9992
2 33493 098.1312 294.3441 0013940 252.5000 107.4697 14.96854112594481
KKS-1 (KISEKI)
1 33499U 09002H   20001.47637696  .00000042  00000-0  14175-4 0  9998
2 33499  98.3324 211.3125 0008116 305.0129  55.0317 14.75492394588246
SWISSCUBE
1 35932U 09051B   19365.75460955  .00000096  00000-0  32762-4 0  9991
2 35932  98.5998 177.6843 0006579 286.5166  73.5307 14.56344484545315
BEESAT
1 35933U 09051C   19365.74606580 +.00000074 +00000-0 +27681-4 0  9997
2 35933 098.6010 179.5070 0004866 303.3606 056.7125 14.56426201545341
ITUPSAT 1
1 35935U 09051E   19365.71104130  .00000050  00000-0  22696-4 0  9995
2 35935  98.6119 179.6916 0007151 299.6184  60.4300 14.55578408545153
XIWANG-1 (HOPE-1)
1 36122U 09072B   20001.20760413 -.00000042  00000-0 -24958-6 0  9990
2 36122 100.0809 359.4050 0006920 252.6115 107.4242 13.16352549482732
TISAT 1
1 36799U 10035E   19365.68916227 +.00000171 +00000-0 +23295-4 0  9992
2 36799 098.1757 164.6612 0012770 158.1639 202.0125 14.91237513513770
JUGNU
1 37839U 11058B   20001.33205301  .00000284  00000-0  94079-5 0  9993
2 37839  19.9598 222.3150 0018863 334.9162 182.0354 14.12667947425092
SRMSAT
1 37841U 11058D   20001.45140134  .00000299  00000-0  18932-4 0  9990
2 37841  19.9722 282.4412 0011908 197.5212 319.2191 14.10646958424510
M-CUBED/EXP-1 PRIME
1 37855U 11061F   20001.50110726  .00000416  00000-0  28859-4 0  9999
2 37855 101.7266   3.2895 0172085 213.2284 145.8029 15.05910161446399
HORYU 2
1 38340U 12025D   19365.86421030 +.00000119 +00000-0 +25277-4 0  9994
2 38340 098.3057 050.0901 0010868 213.6214 146.4306 14.75793333399683
STRAND 1
1 39090U 13009E   19365.84368182 +.00000011 +00000-0 +19003-4 0  9997
2 39090 098.4679 208.3305 0010208 068.5196 291.7077 14.35112041358509
SOMP
1 39134U 13015E   19365.70884261 +.00001042 +00000-0 +55908-4 0  9998
2 39134 064.8632 105.1751 0038235 271.4210 088.2537 15.20618086370391
BEESAT 3
1 39135U 13015F   20001.51105075  .00000784  00000-0  47698-4 0  9995
2 39135  64.8660 123.6713 0044143 273.2434  86.3642 15.17823655370111
BEESAT 2
1 39136U 13015G   19365.70048514  .00000890  00000-0  54085-4 0  9998
2 39136  64.8707 130.7026 0030990 280.7428  79.0209 15.17246863369904
CUBEBUG 1
1 39153U 13018D   20001.22171183  .00000152  00000-0  26721-4 0  9992
2 39153  97.9814 103.2940 0015581 282.2858  77.6609 14.80646192360897
ZACUBE
1 39417U 13066B   19365.88911501 +.00000176 +00000-0 +28250-4 0  9992
2 39417 097.5612 008.3468 0060306 110.2152 250.5560 14.81199692330089
TRITON 1
1 39427U 13066M   19365.91148994 +.00000097 +00000-0 +23848-4 0  9995
2 39427 097.7026 331.4460 0112302 257.2404 101.6232 14.67924976326935
GOMX 1
1 39430U 13066Q   20001.48057556  .00000187  00000-0  42888-4 0  9998
2 39430  97.7730 310.3342 0151227 354.3890   5.5601 14.59332451325307
HUMSAT D
1 39433U 13066T   19365.88137245 +.00000282 +00000-0 +32714-4 0  9993
2 39433 097.5297 045.1094 0030783 008.7573 351.4177 14.92339867331150
CUBEBUG 2
1 39440U 13066AA  20001.49823872  .00000131  00000-0  25113-4 0  9993
2 39440  97.6156 353.4530 0080494 164.6621 195.7057 14.75937145329004
FUNCUBE 1
1 39444U 13066AE  19365.91537312 +.00000218 +00000-0 +32936-4 0  9993
2 39444 097.5573 010.4915 0059468 103.2980 257.4875 14.82036317328407
UWE-3
1 39446U 13066AG  19365.89466887 +.00000159 +00000-0 +27649-4 0  9999
2 39446 097.5879 000.0618 0070924 138.9053 221.7532 14.78471612327666
SPROUT
1 39770U 14029E   20001.53349079  .00000523  00000-0  63706-4 0  9991
2 39770  97.8911 108.6637 0009297 153.4725 206.6979 14.87558971304098
UNISAT 6
1 40012U 14033C   19365.85860281 +.00000113 +00000-0 +24189-4 0  9993
2 40012 097.7297 223.7236 0058130 183.4503 176.6314 14.74050479297586
DUCHIFAT 1
1 40021U 14033M   19365.74791793  .00000451  00000-0  51677-4 0  9999
2 40021  97.9339 291.0633 0013980 120.2370 240.0234 14.90775065300753
QB50P1
1 40025U 14033R   20001.53162235  .00000222  00000-0  29515-4 0  9994
2 40025  97.9112 285.9160 0013438 127.6975 232.5463 14.89046231300612
CHUBUSAT 1
1 40300U 14070C   20001.46324087  .00000413  00000-0  20793-4 0  9999
2 40300  97.3084  75.4800 0021360  84.2756 287.0286 15.22306722285950
NUDT-PHONESAT
1 40900U 15049B   20001.48710069  .00001638  00000-0  71650-4 0  9991
2 40900  97.4341  13.9416 0011683 208.0903 306.8635 15.23453991237610
ZDPS 2A
1 40901U 15049C   20001.53279234  .00000726  00000-0  38999-4 0  9998
2 40901  97.4607   9.5551 0011962 234.9059 243.2550 15.18004526237099
ZDPS 2B
1 40902U 15049D   20001.45201784  .00000776  00000-0  41565-4 0  9993
2 40902  97.4572   6.8216 0011991 232.5704 286.3975 15.17918183237059
XW-2A
1 40903U 15049E   20001.45690734  .00001287  00000-0  31635-4 0  9996
2 40903  97.3127  50.1101 0014059 146.0338 327.9007 15.42474505240572
KAITUO 1A
1 40904U 15049F   20001.44639927  .00000211  00000-0  14588-4 0  9997
2 40904  97.4715   5.1628 0013080 244.3734 275.0373 15.15552124236798
OBJECT G
1 40905U 15049G   20001.46932473  .00000571  00000-0  34609-4 0  9997
2 40905  97.4782   2.5396 0014070 239.8475 273.1958 15.14429627236650
XW-2C
1 40906U 15049H   20001.47096603  .00000669  00000-0  38390-4 0  9994
2 40906  97.4722   5.3676 0013367 233.5650 279.8171 15.15880170236803
XW-2D
1 40907U 15049J   20001.48881582  .00000608  00000-0  34999-4 0  9998
2 40907  97.4709   5.0717 0012710 230.1139 281.3121 15.16087171236824
LILACSAT 2
1 40908U 15049K   20001.44832936  .00000005  00000-0  38964-5 0  9992
2 40908  97.4845   3.6158 0014402 240.9240 283.6135 15.13922985236571
XW-2F
1 40910U 15049M   20001.45822486  .00000697  00000-0  37964-4 0  9990
2 40910  97.4650   7.3518 0013445 221.5935 296.4142 15.17623401236857
XW-2B
1 40911U 15049N   20001.46525655  .00000635  00000-0  36471-4 0  9994
2 40911  97.4724   5.7299 0012686 231.1669 283.4887 15.16016182236713
KAITUO 1B
1 40912U 15049P   20001.44179177  .00000728  00000-0  36976-4 0  9990
2 40912  97.4496  11.2823 0014123 199.8948 266.3035 15.19975513237196
TIANWANG 1C (TW-1C)
1 40926U 15051B   20001.41721264  .00011006  00000-0  13699-3 0  9992
2 40926  97.1090  52.5757 0007159  13.8839  42.7415 15.60081210240782
